Starlink 31497

operational
NORAD ID: 60592 Int'l Des: 2024-150 Owner: SPXS Country: US Constellation: starlink
LEOCIRCULAR

About Starlink 31497

Description loading...

Live Position

Loading 3D Globe...

Upcoming Passes

Altitude History

Altitude vs Time

uPlot chart will show altitude changes over time

Two-Line Element Set

1 60592U 24150K 25352.32709404 .00000623 00000-0 33178-4 0 9997
2 60592 53.1626 325.0016 0001544 96.9242 263.1935 15.30193181 75586
Epoch: Dec 18, 2025 • Age: 20 hours

Current Status

Altitude 481.3 km
Velocity 7.62 km/s
Sub-Earth Point -19.77°S, 155.73°E
Launch Date Aug 20, 2024
Age 1.3 years
Type internet

Technical Details

Classification Payload
Mass 730.00 kg
Dry Mass 700.00 kg
Total Mass 730.00 kg
Length 0.30 m
Diameter 4.10 m
Span 29.00 m
Shape Box + pan
Manufacturer SPXS
Bus Type Starlink V2M
Phase Status In Orbit
Owner/State SPXS/US

Large Constellations

Loading constellations...